Theta_e
315 310 308 309 310 309 308 306 305 309 312 310 309 309 312 316 318 318 322 330 326 325 329 329 330 330 331 328 327 330 330 325 327 325 323 323 323 324 326 330 330 332 330 328
312 308 311 311 310 309 309 307 307 310 312 310 309 308 312 316 320 321 329 328 325 325 325 325 326 326 327 327 329 328 327 325 324 324 325 325 325 327 330 332 330 330 329 328
309 310 312 310 309 308 309 307 307 305 309 310 308 306 309 318 321 321 325 326 324 323 322 323 324 324 325 325 326 326 324 324 325 326 328 328 330 329 329 329 326 325 326 327
310 313 309 309 309 309 305 311 309 307 306 300 309 298 309 314 310 312 321 320 321 322 324 322 319 318 320 320 320 319 319 318 319 320 321 319 320 317 321 323 329 325 326 325
309 310 309 309 309 311 307 311 309 307 305 304 303 302 305 315 309 316 318 317 316 315 314 314 314 313 315 316 316 317 317 316 317 320 319 318 318 319 323 323 324 324 324 325
311 315 312 311 312 312 313 308 307 307 305 297 303 303 304 310 314 314 314 311 311 310 308 309 310 311 312 316 317 316 316 317 319 319 320 322 321 320 318 317 317 316 319 321
311 310 314 315 310 312 309 305 297 296 297 294 303 302 308 312 313 314 311 310 308 307 307 308 309 310 312 312 315 316 314 312 314 315 319 319 320 321 318 318 316 315 315 317
304 302 311 314 310 306 305 305 298 291 293 294 305 296 305 312 314 315 312 309 307 307 308 308 310 311 312 315 315 313 313 313 315 315 315 316 319 316 315 315 316 314 314 313
304 304 313 313 312 310 306 303 308 302 301 297 300 307 312 313 312 312 311 308 307 307 309 310 311 311 311 312 311 310 311 312 314 315 315 316 317 317 315 316 317 315 317 315
309 302 310 311 312 312 309 309 300 302 292 290 296 299 300 307 310 309 307 307 308 310 309 309 310 311 312 311 310 314 315 313 313 313 314 313 314 314 314 314 313 314 315 315
312 309 305 308 306 305 306 303 305 304 301 293 291 295 308 307 309 307 307 307 308 309 308 309 309 310 311 313 311 313 312 311 311 311 312 311 312 311 312 312 312 313 316 316
313 309 301 303 309 312 310 307 306 297 296 299 297 297 310 309 310 310 308 308 310 310 309 309 309 311 310 310 310 309 309 309 310 311 311 312 312 311 315 315 315 316 315 315
312 306 298 300 305 310 305 308 307 306 306 297 294 297 310 309 308 309 308 309 310 310 311 310 308 307 308 307 308 307 309 309 308 310 309 311 306 310 310 312 314 313 313 313
316 309 304 297 300 304 302 303 305 305 298 298 298 300 303 305 306 307 308 308 308 307 308 308 306 306 306 307 307 307 308 309 309 310 309 311 311 311 311 311 312 312 312 312
314 305 305 305 305 304 303 303 303 302 303 298 300 300 302 305 307 308 308 308 307 306 305 305 305 305 304 306 308 308 309 310 309 307 308 309 311 309 310 310 311 310 310 310
317 303 304 300 303 304 301 304 305 305 305 304 303 298 306 308 308 308 307 306 305 304 305 304 304 305 304 306 307 308 307 308 308 308 308 309 309 310 311 310 310 307 307 309
310 305 302 297 304 304 299 304 304 305 306 304 298 301 306 305 306 307 307 306 304 303 303 303 304 304 306 306 308 307 308 309 308 307 307 308 309 308 308 308 308 307 306 307
309 308 306 300 303 292 304 310 307 305 305 307 305 305 306 306 308 308 307 305 303 303 303 304 304 305 308 307 308 309 309 308 308 308 307 307 307 306 305 304 304 304 304 304
314 309 303 299 299 301 303 306 304 303 301 306 303 305 306 306 307 304 306 305 304 305 305 305 306 307 308 307 306 308 308 308 307 306 306 306 306 304 304 302 301 301 301 300
312 313 305 302 295 292 303 307 311 309 298 307 307 305 303 303 297 300 305 305 305 305 306 306 307 308 308 308 310 307 306 306 305 305 305 306 305 302 301 301 300 300 300 300
304 305 301 300 297 301 307 309 311 296 296 308 307 306 304 301 303 305 306 304 305 306 306 307 306 307 307 309 308 305 304 303 307 307 306 304 304 303 303 301 300 300 300 301
302 300 300 301 297 293 311 309 301 307 311 309 308 306 305 305 304 304 304 304 304 304 305 306 306 306 306 306 306 303 303 306 306 305 304 304 304 302 301 301 301 302 303 302
302 306 302 303 303 312 313 311 313 313 309 308 306 306 306 304 303 303 303 304 304 305 305 305 303 304 305 306 305 302 303 304 304 303 302 303 302 303 303 302 302 302 301 300
309 312 305 306 309 310 311 313 312 312 308 307 307 307 306 303 304 304 304 304 304 305 304 304 303 302 302 304 304 303 304 304 303 302 301 302 302 304 303 304 302 299 298 298
307 310 306 307 309 310 311 311 311 310 308 307 307 307 306 305 304 304 304 304 305 305 305 304 302 302 302 304 303 304 304 305 302 302 302 303 303 303 302 300 299 301 299 297
311 309 305 304 310 310 311 312 311 309 306 307 306 305 305 305 304 305 304 305 306 305 306 304 305 304 304 303 303 304 305 305 303 302 303 304 305 305 304 303 301 295 295 295
Wind_Speed
18 12 4 14 11 10 13 10 9 9 8 8 9 13 9 8 5 5 8 18 20 20 17 17 14 13 13 12 11 9 8 6 6 5 4 3 3 3 1 4 8 2 1 3
11 3 11 7 7 9 10 11 12 12 15 12 15 19 17 8 13 11 17 17 18 18 19 17 15 12 11 11 10 10 10 9 7 5 3 2 2 3 4 4 5 2 2 1
8 9 5 6 10 7 12 12 12 14 16 17 20 17 19 19 27 31 28 24 20 18 16 16 15 13 13 11 8 9 9 8 6 4 2 2 3 5 3 4 4 3 4 4
6 10 5 7 5 8 8 12 14 16 18 16 19 15 12 20 24 21 8 17 16 17 15 17 15 15 15 11 11 9 8 5 4 7 7 8 4 5 4 6 4 2 3 6
4 8 8 10 14 9 12 14 14 22 21 20 19 4 3 18 16 15 15 17 17 15 15 16 14 13 10 10 9 7 6 6 5 4 3 2 5 4 4 5 6 5 6 6
3 1 4 10 7 11 8 17 20 21 19 13 0 5 11 12 17 15 13 14 13 11 12 13 10 8 7 4 2 3 3 2 4 5 7 5 7 8 7 7 7 5 4 3
12 4 6 3 10 12 15 16 10 13 9 11 12 5 10 14 16 16 11 10 10 10 10 8 7 7 6 5 6 7 7 7 7 7 5 6 6 6 9 8 4 6 5 3
9 6 12 5 9 12 16 12 9 14 13 16 13 6 6 11 13 17 15 11 11 10 8 6 4 2 3 5 2 4 4 5 6 7 6 5 6 5 6 4 3 5 5 6
10 4 15 6 2 8 7 8 15 12 16 11 1 9 8 7 8 13 13 11 11 10 8 8 8 8 6 4 5 6 5 5 6 7 6 7 5 6 6 7 5 7 5 6
9 10 13 16 16 8 8 14 6 10 9 12 14 9 8 1 13 13 12 11 11 10 12 10 6 3 3 4 5 4 9 10 10 10 8 7 8 6 7 6 6 6 6 6
9 7 12 16 14 10 12 11 10 6 7 10 10 7 15 18 17 8 12 16 12 8 7 5 5 5 6 7 9 9 10 11 9 8 9 8 8 9 10 6 9 9 7 7
10 4 9 17 20 13 8 10 5 4 8 8 12 3 12 13 11 7 12 13 8 4 4 4 4 4 7 14 14 13 9 9 9 9 9 11 12 6 6 8 7 7 6 7
9 6 9 12 7 10 7 8 9 11 6 9 12 5 9 5 6 11 9 7 7 5 4 7 9 12 13 13 11 8 8 9 7 7 4 6 7 10 15 9 7 9 7 7
3 5 11 12 18 19 18 15 15 11 3 16 10 5 4 6 8 10 11 9 8 9 8 7 10 14 12 8 8 9 9 8 9 9 10 11 8 9 8 10 8 8 8 8
4 9 12 15 18 19 19 15 13 17 15 10 8 16 18 10 10 7 5 6 8 7 11 15 12 8 8 6 7 9 8 10 11 11 11 11 7 10 10 8 9 11 11 8
8 10 14 17 18 19 18 9 9 15 13 11 12 10 5 13 9 4 6 12 13 14 14 13 8 9 10 12 10 6 7 7 8 10 9 10 11 10 9 7 8 6 6 9
8 9 10 14 18 18 5 11 12 10 13 8 8 4 7 6 13 12 12 12 13 14 10 6 11 11 12 10 8 9 8 8 9 8 9 11 10 9 7 7 8 11 10 9
5 9 8 9 13 5 7 13 10 12 12 9 6 8 8 13 14 13 14 13 11 7 9 14 12 11 8 8 5 8 10 9 10 9 9 10 10 11 11 9 9 10 9 9
3 5 6 3 6 3 6 10 9 7 12 12 11 11 14 14 10 13 13 11 6 13 12 10 8 7 7 8 8 11 9 10 11 11 9 11 9 10 12 11 9 7 6 6
4 4 5 9 6 4 6 9 7 9 4 5 6 13 12 12 8 11 11 6 14 12 10 8 8 5 5 7 9 8 10 10 11 8 6 9 12 10 9 7 8 7 6 5
4 4 4 5 3 3 7 8 11 5 2 6 11 10 10 8 8 7 8 14 11 8 9 10 9 9 11 9 10 10 11 11 11 8 11 11 11 9 9 6 6 6 5 4
5 3 4 5 4 1 12 6 7 6 8 8 10 9 8 8 6 12 11 11 9 9 11 12 8 11 12 11 10 11 12 9 11 10 9 11 9 7 6 7 6 5 5 5
3 4 4 5 3 5 10 8 7 8 9 9 8 7 6 6 14 10 9 7 10 8 10 13 11 10 12 12 13 11 10 12 11 11 10 9 8 6 6 6 7 7 9 8
3 4 3 4 6 8 7 9 10 10 8 8 7 6 7 14 8 11 4 6 8 7 9 11 11 12 11 10 11 10 10 9 8 9 8 8 8 9 9 7 8 7 7 6
3 3 5 9 4 9 10 7 8 7 6 8 8 6 12 9 9 5 5 11 6 9 8 8 9 9 9 8 8 8 8 7 7 7 7 6 4 6 7 7 6 6 6 4
8 5 4 3 5 5 8 7 4 7 6 5 8 8 9 9 9 5 6 10 7 9 11 9 7 5 7 8 8 8 7 9 7 6 5 5 4 3 2 2 3 6 4 6
Wind_Direction
213 242 332 21 13 334 318 337 329 319 51 3 308 289 275 254 119 43 74 82 82 73 74 85 90 99 101 96 102 110 83 32 35 26 22 19 16 334 248 231 230 175 346 360
251 251 55 0 349 306 304 308 22 332 359 333 306 286 270 147 89 49 79 79 69 75 77 82 91 92 98 100 101 81 57 46 36 35 32 337 298 280 290 311 301 282 296 220
323 72 39 301 283 355 340 10 8 328 319 298 282 294 307 103 58 50 19 63 58 58 65 72 74 77 82 80 84 70 52 38 26 1 266 260 294 331 328 325 334 16 241 264
311 60 323 279 20 20 341 6 324 305 301 292 297 285 93 82 77 83 91 54 61 57 62 66 57 50 51 43 46 45 48 48 29 19 20 8 16 321 313 311 282 348 299 278
64 12 342 16 22 2 317 321 305 309 291 280 280 12 131 114 93 99 75 67 63 50 52 52 49 50 47 41 39 37 32 24 18 6 349 315 283 242 283 309 317 318 278 273
0 137 295 19 321 326 329 347 308 288 273 261 112 255 61 29 93 82 73 65 65 67 68 67 62 60 49 25 42 312 319 319 290 274 256 291 335 338 333 313 299 294 332 69
260 134 76 343 349 354 353 316 320 319 348 323 336 9 70 87 89 102 102 86 96 97 82 77 66 46 32 10 0 5 9 360 345 342 320 319 308 311 291 293 350 330 315 333
356 99 278 61 9 343 320 338 319 327 320 302 346 344 95 110 102 97 105 117 108 89 91 97 114 116 259 281 341 5 307 303 303 322 327 310 328 329 327 348 326 302 322 300
325 292 355 103 5 313 343 329 319 290 277 296 73 81 91 85 110 110 107 93 89 92 94 98 82 51 18 329 33 20 334 292 284 305 17 348 322 304 294 295 301 288 285 285
320 320 327 321 336 1 264 339 328 335 330 307 317 103 57 87 136 103 106 100 109 85 59 52 40 53 318 318 297 339 349 12 11 352 348 331 312 304 290 276 275 276 295 334
348 4 321 317 312 342 334 330 340 351 315 319 334 45 39 37 94 61 97 89 91 78 46 27 349 2 322 333 350 18 12 349 0 332 321 303 314 1 307 346 340 345 334 337
59 332 299 316 303 44 339 319 324 310 314 318 306 334 28 51 67 123 100 104 94 64 25 9 325 355 325 13 16 16 16 337 325 310 303 327 347 246 336 350 332 322 314 321
0 347 317 318 288 86 282 252 298 307 339 283 298 34 50 39 81 79 115 136 79 16 41 40 8 349 32 12 10 347 338 327 332 345 356 45 40 4 327 314 324 351 355 11
26 298 302 305 324 317 312 316 313 6 92 295 54 48 145 204 98 77 47 65 58 54 28 356 7 24 15 355 333 348 4 342 346 347 334 340 343 353 316 333 347 360 359 12
61 300 317 309 304 302 291 325 22 288 21 49 24 43 10 32 34 58 48 87 70 20 5 32 15 7 335 328 353 2 353 345 355 349 347 336 17 2 345 8 28 16 356 344
347 311 306 300 291 292 304 78 327 39 33 52 68 78 22 311 340 78 37 46 20 23 27 14 353 357 23 12 15 348 342 344 333 319 333 328 14 14 26 20 23 354 333 9
337 312 307 296 314 304 0 4 28 77 60 18 4 238 221 312 55 41 30 23 22 26 14 329 30 17 11 346 354 334 335 326 342 343 0 3 13 20 357 353 4 17 20 21
318 302 294 301 326 357 71 46 48 70 52 74 26 337 16 21 67 48 42 30 22 19 9 27 7 356 359 334 337 336 352 359 358 359 9 12 11 18 19 25 26 17 22 16
55 309 316 319 316 218 39 33 17 22 60 32 350 353 17 3 94 56 52 34 6 38 27 8 339 356 356 358 352 351 350 10 1 16 24 29 20 11 28 25 16 0 16 9
307 62 357 318 302 355 35 12 359 327 71 312 309 21 8 346 337 42 50 18 49 34 14 340 337 32 356 3 5 8 13 16 19 25 23 31 31 26 22 19 12 2 8 357
17 321 301 332 308 84 11 329 318 11 245 1 27 29 15 24 41 23 38 51 43 22 356 9 21 28 13 8 6 26 23 7 1 14 45 34 26 23 25 25 5 4 2 355
18 337 340 345 323 15 4 18 37 40 58 32 33 27 37 48 55 64 53 39 19 19 21 9 12 25 26 27 27 16 12 16 41 37 38 40 31 34 21 13 7 4 357 4
25 61 320 22 57 84 70 70 60 57 51 41 39 35 53 66 70 57 48 15 56 28 32 38 23 27 28 25 36 21 20 26 26 34 35 40 24 13 32 41 32 25 16 26
75 51 285 146 114 104 104 88 63 53 54 40 52 54 68 82 63 70 20 52 55 28 41 44 31 27 22 22 31 27 19 15 26 44 39 29 31 30 40 35 44 34 21 15
2 159 359 71 73 90 81 83 87 84 60 81 55 67 71 74 54 75 19 74 64 66 56 49 43 24 16 22 21 18 13 21 36 36 42 45 52 36 49 53 30 41 45 25
62 32 30 89 56 79 123 103 120 75 56 55 98 92 88 69 87 63 33 72 48 50 44 33 39 44 24 42 23 26 28 39 32 28 35 17 21 46 88 33 81 48 23 27